Location: Argut
(42.8865°N, 0.7291°E)
Time: 05:22:18
(UTC+00:00)

Daily predictions for brighter satellites

Satellite Brightness Start Highest point End
(mag) Time Altitude Azimuth Time Altitude Azimuth Time Altitude Azimuth
SJ 16-02 3.9 00:09:53 16° NE 00:09:53 16° NE 00:11:02 10° NE
SL-16 R/B 3.1 00:08:54 10° NNW 00:13:48 44° NE 00:13:48 44° NE
Nadezhda 4 Rocket 4.4 00:10:38 10° NNW 00:15:44 58° NW 00:15:44 58° NW
Cosmos 2297 Rocket 2.9 00:28:54 50° NNW 00:28:54 50° NNW 00:33:21 10° NNE
Cosmos 2344 4.4 00:23:56 10° NW 00:33:49 84° WSW 00:38:09 49° SSE
USA 229 DEB 4.3 00:36:45 43° E 00:36:45 43° E 00:41:58 10° NE
USA 229 4.3 00:36:53 43° E 00:36:53 43° E 00:42:03 10° NE
Cosmos 1092 Rocket 4.3 00:31:25 10° N 00:36:34 62° NNW 00:36:34 62° NNW
Cosmos 2219 4.2 00:41:47 40° NW 00:41:47 40° NW 00:46:26 10° NNE
Cosmos 2237 Rocket 3.8 00:38:29 10° NW 00:41:11 26° WNW 00:41:11 26° WNW
NOSS 3-1 (A) 4.5 00:48:36 32° E 00:48:36 32° E 00:52:36 10° NE
Cosmos 1680 Rocket 4.4 00:47:40 10° NNW 00:51:28 46° N 00:51:28 46° N
CZ-2D R/B 3.1 01:03:19 10° NNE 01:08:00 41° E 01:08:00 41° E
SL-16 R/B 3.0 01:09:26 50° ESE 01:10:25 55° ENE 01:16:30 10° N
Cosmos 1655 Rocket 4.0 01:12:00 10° N 01:18:15 70° E 01:18:27 69° E
Cosmos 2227 Rocket 3.5 01:18:32 30° NW 01:18:34 30° NW 01:23:33 10° N
Meteor 1-22 Rocket 4.4 01:25:04 63° N 01:25:04 63° N 01:29:34 10° N
Meteor 2-5 Rocket 4.2 01:20:46 10° NNW 01:25:04 51° NW 01:25:04 51° NW
NPP 4.2 01:22:06 10° NNE 01:27:04 51° E 01:27:04 51° E
Cosmos 2279 Rocket 4.1 01:29:43 63° WNW 01:29:43 63° WNW 01:35:35 10° N
Exosat Rocket 4.4 01:36:54 61° S 01:38:16 75° ESE 01:44:30 10° NNE
Cosmos 2180 Rocket 4.4 01:39:58 68° WNW 01:39:58 68° WNW 01:45:59 10° N
Resurs 1-4 Rocket 2.1 01:36:43 10° NNE 01:41:36 76° NE 01:41:36 76° NE
NOSS 2-3 (E) 4.3 01:44:48 53° NNE 01:44:48 53° NNE 01:48:42 10° NE
Cosmos 2227 4.2 01:44:00 77° ESE 01:44:00 77° ESE 01:49:43 10° NNE
SJ 16-02 3.2 01:46:52 23° NW 01:46:52 23° NW 01:49:27 10° N
Cosmos 2098 Rocket 3.9 01:40:00 10° N 01:45:48 87° E 01:46:32 72° SSE
NOSS 3-1 (C) 3.7 01:48:09 49° WNW 01:48:38 50° NW 01:54:49 10° NNE
Cosmos 2263 Rocket 2.0 01:56:40 87° SSE 01:56:43 88° ESE 02:02:19 10° NNE
SL-16 R/B 4.0 01:53:32 10° NW 01:55:38 19° WNW 01:55:38 19° WNW
Cosmos 2298 Rocket 4.5 01:57:57 50° ESE 01:58:19 51° ESE 02:03:30 10° NNE
Cosmos 724 4.4 01:58:25 10° NW 02:03:52 61° W 02:03:52 61° W
Cosmos 372 Rocket 3.9 02:04:37 81° ESE 02:04:41 82° ESE 02:09:57 10° NNE
Cosmos 1937 Rocket 4.0 02:07:18 46° WNW 02:07:18 46° WNW 02:12:22 10° N
NOSS 2-3 (D) 4.1 02:08:30 52° NNW 02:08:30 52° NNW 02:13:03 10° NNE
COBE Rocket 3.7 02:08:32 80° NE 02:08:32 80° NE 02:13:03 10° N
Cosmos 1455 Rocket 4.2 02:12:38 35° NW 02:12:38 35° NW 02:15:50 10° N
Cosmos 1809 Rocket 4.4 02:05:30 10° N 02:11:39 87° E 02:13:15 53° S
Cosmos 2285 Rocket 4.3 02:10:59 45° SSE 02:12:41 60° ESE 02:18:52 10° NNE
ATLAS CENTAUR R/B 2.0 02:13:46 49° ENE 02:13:46 49° ENE 02:16:56 10° NE
Cosmos 1726 3.2 02:14:19 41° NNE 02:14:19 41° NNE 02:16:48 10° N
ADEOS II 2.2 02:08:24 10° NNE 02:13:39 65° ESE 02:14:31 56° SSE
Cosmos 1626 Rocket 3.8 02:09:20 10° N 02:13:03 65° N 02:13:03 65° N
CZ-4B R/B 3.2 02:11:47 10° NNE 02:16:34 89° ESE 02:16:40 86° S
Cosmos 1844 Rocket 4.2 02:17:42 21° SE 02:20:00 28° ESE 02:24:41 10° NE
Cosmos 2266 Rocket 4.2 02:16:25 10° NNW 02:22:28 50° W 02:22:57 49° WSW
USA 229 DEB 4.5 02:24:11 30° W 02:26:35 39° NW 02:33:01 10° NNE
USA 229 4.5 02:24:19 30° W 02:26:41 39° NW 02:33:07 10° NNE
GEOS 3 Rocket 4.0 02:21:58 10° NNE 02:27:16 57° NW 02:28:25 47° W
Meteor 2-10 4.1 02:27:12 61° SW 02:28:04 73° W 02:33:48 10° N
Cosmos 2084 3.4 02:28:47 82° NW 02:28:47 82° NW 02:33:12 10° NE
Meteor 1-21 Rocket 4.0 02:24:37 10° NNW 02:30:10 83° W 02:31:40 50° S
Meteor 2-21 4.3 02:24:10 10° N 02:30:15 78° W 02:32:12 45° S
CBERS-1 3.9 02:25:16 10° NNE 02:30:24 80° WNW 02:31:10 64° SW
ARIANE 5 R/B 3.1 02:28:54 10° NNE 02:34:02 52° E 02:36:11 32° SSE
Cosmos 1932 4.4 02:28:12 10° NW 02:34:42 78° WSW 02:41:01 10° SSE
Cosmos 1758 Rocket 4.1 02:32:13 10° N 02:36:28 55° E 02:38:14 32° SE
NOSS 3-1 (A) 4.2 02:36:02 31° W 02:37:52 39° NW 02:43:53 10° NNE
Cosmos 1603 3.9 02:33:38 10° NW 02:39:04 46° WSW 02:39:04 46° WSW
Cosmos 2150 Rocket 3.9 02:42:28 54° SW 02:43:30 70° WNW 02:48:46 10° NNE
MINOTAUR IV R/B 4.4 02:41:04 10° NNW 02:45:33 75° WSW 02:46:15 60° S
H-2A R/B 4.2 02:43:27 10° ESE 02:46:48 25° ENE 02:50:10 10° NNE
CZ-2D R/B 3.3 02:43:45 10° N 02:48:21 28° WNW 02:49:19 26° W
Cosmos 1703 3.1 02:48:03 10° N 02:52:02 90° W 02:52:42 61° S
SL-16 R/B 3.6 02:54:31 25° W 02:54:31 25° W 02:59:22 10° NW
Cosmos 1825 Rocket 3.7 02:50:44 10° N 02:55:03 70° E 02:57:30 25° SSE
Cosmos 1125 Rocket 3.4 02:54:00 43° SSW 02:55:45 84° WNW 03:01:04 10° NNE
Cosmos 1943 3.6 02:52:20 10° NW 02:57:30 39° WSW 02:57:52 38° WSW
OAO 3 Rocket 4.4 02:58:35 26° S 02:58:35 26° S 03:01:47 10° SE
Cosmos 1953 3.4 02:59:36 31° WNW 02:59:36 31° WNW 03:03:01 10° NNW
USA 215 3.4 02:53:52 10° NE 03:00:24 68° SE 03:03:50 30° SSW
IRS-1C 4.1 02:56:24 10° N 03:01:43 68° WNW 03:03:51 37° SW
IRS-1D 4.2 03:00:03 10° N 03:04:45 38° WNW 03:06:07 32° WSW
Cosmos 1328 3.7 03:01:52 10° NNW 03:05:53 73° W 03:07:02 44° SSW
Cosmos 1953 Rocket 4.0 03:02:04 10° N 03:06:32 62° E 03:10:56 10° SSE
CZ-2D R/B 3.3 03:07:14 10° NNE 03:11:15 83° ESE 03:12:51 35° S
OAO 2 Rocket 4.2 03:10:53 30° SSW 03:11:59 33° S 03:16:42 10° ESE
Meteor 2-8 Rocket 4.4 03:15:17 24° SSW 03:19:04 70° W 03:25:11 10° N
Resurs 1-4 Rocket 4.0 03:18:26 10° NNW 03:21:06 14° WNW 03:22:40 13° WNW
Cosmos 1606 Rocket 3.6 03:19:25 32° SSW 03:21:23 65° W 03:25:50 10° N
Hubble Space Telescope 3.2 03:22:46 10° SSE 03:22:46 10° SSE 03:22:55 10° SSE
Atlas Centaur 2 3.5 03:20:39 23° SSW 03:22:53 28° S 03:29:05 10° ESE
NOSS 2-2 (E) 3.0 03:22:46 39° SSW 03:24:00 86° ESE 03:27:54 10° NE
NOSS 2-2 (D) 3.2 03:23:30 33° SSW 03:24:54 66° ESE 03:28:40 10° NE
IDEFIX/ARIANE 42P 2.5 03:25:12 10° N 03:30:24 73° WNW 03:34:08 19° SSW
USA 267 4.2 03:25:38 10° ESE 03:31:54 51° NNE 03:38:11 10° NW
Cosmos 1908 4.3 03:31:23 25° W 03:32:05 27° WNW 03:35:28 10° NNW
Cosmos 1726 Rocket 3.7 03:33:33 24° SSW 03:36:05 56° W 03:40:29 10° N
MSX 3.8 03:30:32 10° NNE 03:36:21 87° ESE 03:42:02 10° SSW
Cosmos 2228 3.6 03:36:22 25° SW 03:38:22 41° WNW 03:42:33 10° N
Helios 1B 4.5 03:34:56 10° S 03:39:15 73° WSW 03:43:36 10° NNW
Cosmos 2315 Rocket 4.4 03:33:51 10° S 03:40:07 69° E 03:46:28 10° NNE
Cosmos 2263 Rocket 4.0 03:38:21 11° W 03:41:25 17° NW 03:44:56 10° N
Cosmos 1844 3.7 03:37:25 19° SSW 03:41:44 78° WNW 03:47:32 10° NNE
Meteor 1-28 Rocket 4.4 03:41:32 23° WSW 03:41:52 23° W 03:44:59 10° NW
SL-08 R/B 4.4 03:44:25 20° SW 03:46:35 27° W 03:50:47 10° NW
Cosmos 1386 Rocket 4.5 03:41:56 10° NNW 03:47:49 58° W 03:53:40 10° S
Cosmos 1455 4.4 03:45:12 10° SSE 03:48:27 27° E 03:51:45 10° NNE
Cosmos 1356 Rocket 4.0 03:46:41 21° SW 03:48:57 39° WNW 03:52:50 10° N
CZ-2C R/B 2.8 03:46:10 10° N 03:49:54 55° WNW 03:52:32 17° SSW
Cosmos 1300 3.0 03:49:35 19° SSW 03:52:05 48° W 03:55:48 10° N
ATLAS CENTAUR R/B 3.3 03:49:57 12° W 03:52:12 17° NW 03:54:51 10° N
ADEOS II 3.8 03:49:20 10° NNW 03:52:48 18° WNW 03:55:28 13° W
ERS-2 2.0 03:51:36 10° S 03:55:13 72° WSW 03:58:53 10° NNW
CZ-4C R/B 3.2 03:55:00 10° S 03:58:08 44° W 04:01:24 10° NNW
Cosmos 1269 Rocket 4.2 03:56:02 10° NNW 04:01:11 52° WSW 04:06:18 10° S
Cosmos 2278 Rocket 3.5 03:57:34 10° S 04:02:48 40° ESE 04:08:04 10° NE
Cosmos 1844 Rocket 3.2 03:59:23 15° SW 04:03:39 42° WNW 04:08:57 10° NNE
Cosmos 1076 Rocket 4.5 04:03:11 10° N 04:07:28 52° E 04:11:43 10° SSE
NOSS 2-2 (C) 3.8 04:05:43 15° WSW 04:08:21 41° NW 04:12:05 10° NNE
Cosmos 1812 Rocket 4.3 04:04:12 10° S 04:08:25 55° E 04:12:41 10° NNE
Lacrosse 5 rocket 2.7 04:04:54 10° SSW 04:09:06 39° SE 04:13:23 10° ENE
Cosmos 1833 Rocket 4.3 04:04:53 10° NNW 04:10:11 40° ENE 04:15:28 10° SE
NOSS 3-2 (A) 4.5 04:04:18 10° NNW 04:11:53 72° NE 04:20:22 10° SE
ARIANE 5 R/B 4.0 04:08:49 10° NNW 04:12:44 22° WNW 04:16:31 11° WSW
USA 281 3.6 04:06:48 10° NNE 04:13:20 66° ESE 04:19:51 10° SSW
SeaSat 1 2.6 04:11:12 10° NNE 04:16:10 75° ESE 04:21:05 10° SSW
Meteor 2-10 Rocket 3.9 04:14:26 10° S 04:19:38 72° E 04:25:06 10° NNE
SAR-Lupe-1 4.3 04:16:35 10° SSE 04:20:08 73° ENE 04:23:44 10° N
H-2A R/B 2.9 04:19:12 10° SSW 04:22:41 27° W 04:26:12 10° NW
Cosmos 2058 Rocket 4.1 04:19:01 10° SW 04:22:54 29° WNW 04:26:46 10° NNW
Cosmos 1867 3.6 04:19:22 10° NW 04:24:52 89° WSW 04:30:18 10° SSE
Cosmos 2058 2.9 04:27:03 10° NNW 04:31:13 67° W 04:35:22 10° S
CZ-2C R/B 2.5 04:28:18 10° N 04:32:49 55° WNW 04:37:23 10° SSW
Cosmos 2184 Rocket 4.4 04:26:32 10° N 04:32:49 72° E 04:39:01 10° SSE
DEBRIS 3.4 04:31:07 10° WNW 04:32:58 25° NNW 04:35:04 10° NE
Cosmos 2074 Rocket 4.3 04:27:02 10° N 04:33:20 76° E 04:39:38 10° SSE
Cosmos 1408 2.6 04:29:51 10° N 04:33:35 86° W 04:37:15 10° S
